When you browse on this site, cookies collect data to enhance your experience and personalize the content and advertising you see.
Visit our Privacy Policy to learn more. By continuing to use the site, you agree to this use of cookies and data.

Tiempo cada hora Eisenstadt

Hoy, 3 Julio, Viernes

Tiempo Temperatura Precipitaciones Viento Presión Humedad
00:00 +19°C° 0.1 mm 2 mps 720 mmHg 82%
01:00 +18°C° 0 mm 2 mps 720 mmHg 83%
02:00 +18°C° 0 mm 2 mps 720 mmHg 83%
03:00 +18°C° 0 mm 2 mps 720 mmHg 83%
04:00 +18°C° 0 mm 2 mps 720 mmHg 83%
05:00 +18°C° 0.6 mm 3 mps 720 mmHg 85%
06:00 +17°C° 0.6 mm 3 mps 721 mmHg 87%
07:00 +17°C° 0 mm 3 mps 722 mmHg 86%
08:00 +17°C° 0.8 mm 3 mps 722 mmHg 87%
09:00 +17°C° 0.8 mm 3 mps 722 mmHg 87%
10:00 +17°C° 0.8 mm 4 mps 722 mmHg 87%
11:00 +18°C° 0.6 mm 3 mps 722 mmHg 82%
12:00 +19°C° 0.6 mm 3 mps 723 mmHg 77%
13:00 +21°C° 0 mm 3 mps 723 mmHg 68%
14:00 +22°C° 0.1 mm 3 mps 723 mmHg 63%
15:00 +24°C° 0.1 mm 3 mps 723 mmHg 58%
16:00 +25°C° 0.1 mm 3 mps 723 mmHg 53%
17:00 +22°C° 0 mm 3 mps 723 mmHg 59%
18:00 +21°C° 0 mm 3 mps 723 mmHg 66%
19:00 +20°C° 0 mm 2 mps 723 mmHg 72%
20:00 +19°C° 0 mm 2 mps 723 mmHg 73%
21:00 +18°C° 0 mm 2 mps 723 mmHg 75%
22:00 +16°C° 0 mm 2 mps 724 mmHg 76%
23:00 +16°C° 0 mm 2 mps 724 mmHg 77%

Mañana, 4 Julio, Sábado

Tiempo Temperatura Precipitaciones Viento Presión Humedad
00:00 +15°C° 0 mm 2 mps 724 mmHg 79%
01:00 +15°C° 0 mm 2 mps 724 mmHg 80%
02:00 +15°C° 0 mm 2 mps 724 mmHg 80%
03:00 +14°C° 0 mm 2 mps 724 mmHg 81%
04:00 +14°C° 0 mm 2 mps 724 mmHg 81%
05:00 +16°C° 0 mm 3 mps 724 mmHg 75%
06:00 +18°C° 0 mm 3 mps 724 mmHg 69%
07:00 +19°C° 0 mm 3 mps 725 mmHg 63%
08:00 +21°C° 0 mm 3 mps 725 mmHg 58%
09:00 +22°C° 0 mm 4 mps 725 mmHg 53%
10:00 +23°C° 0 mm 4 mps 725 mmHg 47%
11:00 +25°C° 0 mm 4 mps 725 mmHg 46%
12:00 +26°C° 0 mm 4 mps 724 mmHg 44%
13:00 +26°C° 0 mm 4 mps 724 mmHg 43%
14:00 +26°C° 0 mm 4 mps 724 mmHg 44%
15:00 +26°C° 0 mm 3 mps 724 mmHg 45%
16:00 +26°C° 0 mm 3 mps 724 mmHg 46%
17:00 +25°C° 0 mm 3 mps 724 mmHg 55%
18:00 +23°C° 0 mm 2 mps 723 mmHg 63%
19:00 +21°C° 0 mm 2 mps 723 mmHg 71%
20:00 +19°C° 0 mm 2 mps 724 mmHg 72%
21:00 +18°C° 0 mm 2 mps 724 mmHg 73%
22:00 +16°C° 0 mm 2 mps 724 mmHg 74%
23:00 +16°C° 0 mm 2 mps 724 mmHg 73%

Pasado mañana, 5 Julio, Domingo

Tiempo Temperatura Precipitaciones Viento Presión Humedad
00:00 +16°C° 0 mm 2 mps 724 mmHg 72%
01:00 +16°C° 0 mm 2 mps 724 mmHg 71%
02:00 +16°C° 0 mm 2 mps 724 mmHg 73%
03:00 +16°C° 0 mm 2 mps 724 mmHg 75%
04:00 +16°C° 0 mm 2 mps 724 mmHg 76%
05:00 +17°C° 0 mm 2 mps 724 mmHg 73%
06:00 +19°C° 0 mm 2 mps 725 mmHg 70%
07:00 +21°C° 0 mm 2 mps 725 mmHg 66%
08:00 +24°C° 0 mm 2 mps 725 mmHg 61%
09:00 +25°C° 0 mm 2 mps 725 mmHg 55%
10:00 +27°C° 0 mm 2 mps 725 mmHg 50%
11:00 +27°C° 0 mm 2 mps 725 mmHg 49%
12:00 +28°C° 0 mm 2 mps 724 mmHg 48%
13:00 +28°C° 0 mm 2 mps 724 mmHg 48%
14:00 +28°C° 0 mm 1 mps 724 mmHg 48%
15:00 +28°C° 0 mm 1 mps 723 mmHg 49%
16:00 +28°C° 0 mm 1 mps 723 mmHg 50%
17:00 +27°C° 0 mm 1 mps 723 mmHg 57%
18:00 +25°C° 0 mm 1 mps 723 mmHg 63%
19:00 +22°C° 0 mm 0 mps 722 mmHg 69%
20:00 +23°C° 0 mm 1 mps 722 mmHg 73%
21:00 +22°C° 0 mm 1 mps 723 mmHg 76%
22:00 +20°C° 0 mm 1 mps 723 mmHg 79%
23:00 +20°C° 0 mm 1 mps 722 mmHg 79%

6 Julio, Lunes

Tiempo Temperatura Precipitaciones Viento Presión Humedad
00:00 +20°C° 0 mm 1 mps 722 mmHg 80%
01:00 +20°C° 0 mm 1 mps 722 mmHg 80%
02:00 +20°C° 0 mm 1 mps 722 mmHg 80%
03:00 +19°C° 0 mm 1 mps 721 mmHg 79%
04:00 +19°C° 0 mm 1 mps 721 mmHg 79%
05:00 +21°C° 0 mm 1 mps 721 mmHg 74%
06:00 +22°C° 0 mm 1 mps 721 mmHg 70%
07:00 +24°C° 0 mm 1 mps 722 mmHg 66%
08:00 +25°C° 0 mm 1 mps 722 mmHg 63%
09:00 +26°C° 0 mm 2 mps 721 mmHg 60%
10:00 +27°C° 0 mm 2 mps 721 mmHg 57%
11:00 +27°C° 0.2 mm 2 mps 721 mmHg 59%
12:00 +27°C° 0.2 mm 2 mps 720 mmHg 61%
13:00 +27°C° 0.2 mm 2 mps 720 mmHg 62%
14:00 +27°C° 0.3 mm 2 mps 720 mmHg 63%
15:00 +27°C° 0.3 mm 2 mps 720 mmHg 64%
16:00 +27°C° 0.3 mm 3 mps 720 mmHg 65%
17:00 +25°C° 0.5 mm 3 mps 720 mmHg 70%
18:00 +22°C° 0.5 mm 4 mps 720 mmHg 75%
19:00 +20°C° 0.5 mm 4 mps 720 mmHg 80%
20:00 +19°C° 0.4 mm 4 mps 721 mmHg 80%
21:00 +18°C° 0.4 mm 4 mps 721 mmHg 81%
22:00 +18°C° 0.4 mm 4 mps 722 mmHg 82%
23:00 +17°C° 0.3 mm 4 mps 722 mmHg 81%

7 Julio, Martes

Tiempo Temperatura Precipitaciones Viento Presión Humedad
00:00 +15°C° 0.3 mm 4 mps 722 mmHg 81%
01:00 +14°C° 0.3 mm 4 mps 723 mmHg 81%
02:00 +13°C° 0.3 mm 4 mps 723 mmHg 82%
03:00 +13°C° 0.3 mm 4 mps 723 mmHg 83%
04:00 +12°C° 0.3 mm 4 mps 723 mmHg 84%
05:00 +12°C° 0.2 mm 4 mps 723 mmHg 84%
06:00 +12°C° 0.2 mm 3 mps 724 mmHg 84%
07:00 +12°C° 0.2 mm 3 mps 724 mmHg 84%
08:00 +13°C° 0 mm 3 mps 724 mmHg 81%
09:00 +14°C° 0 mm 3 mps 724 mmHg 78%
10:00 +15°C° 0 mm 2 mps 725 mmHg 75%
11:00 +17°C° 0 mm 3 mps 725 mmHg 67%
12:00 +18°C° 0 mm 3 mps 724 mmHg 60%
13:00 +20°C° 0 mm 3 mps 724 mmHg 53%
14:00 +21°C° 0 mm 4 mps 724 mmHg 50%
15:00 +21°C° 0 mm 4 mps 724 mmHg 48%
16:00 +21°C° 0 mm 4 mps 724 mmHg 46%
17:00 +20°C° 0 mm 3 mps 724 mmHg 53%
18:00 +19°C° 0 mm 3 mps 724 mmHg 59%
19:00 +17°C° 0 mm 2 mps 724 mmHg 66%
20:00 +16°C° 0 mm 2 mps 724 mmHg 68%
21:00 +15°C° 0 mm 2 mps 724 mmHg 71%
22:00 +13°C° 0 mm 2 mps 725 mmHg 73%
23:00 +13°C° 0 mm 1 mps 725 mmHg 74%

8 Julio, Miércoles

Tiempo Temperatura Precipitaciones Viento Presión Humedad
00:00 +13°C° 0 mm 1 mps 725 mmHg 75%
01:00 +12°C° 0 mm 1 mps 725 mmHg 76%
02:00 +12°C° 0 mm 1 mps 725 mmHg 77%
03:00 +12°C° 0 mm 1 mps 725 mmHg 79%
04:00 +11°C° 0 mm 1 mps 725 mmHg 80%
05:00 +13°C° 0 mm 1 mps 725 mmHg 75%
06:00 +15°C° 0 mm 1 mps 726 mmHg 69%
07:00 +18°C° 0 mm 1 mps 726 mmHg 64%
08:00 +20°C° 0 mm 1 mps 726 mmHg 59%
09:00 +21°C° 0 mm 1 mps 726 mmHg 54%
10:00 +22°C° 0 mm 1 mps 727 mmHg 49%
11:00 +23°C° 0 mm 1 mps 726 mmHg 49%
12:00 +23°C° 0 mm 2 mps 726 mmHg 48%
13:00 +24°C° 0 mm 2 mps 726 mmHg 47%
14:00 +23°C° 0 mm 2 mps 726 mmHg 48%
15:00 +23°C° 0 mm 2 mps 725 mmHg 50%
16:00 +23°C° 0 mm 2 mps 725 mmHg 51%
17:00 +21°C° 0 mm 2 mps 725 mmHg 57%
18:00 +21°C° 0 mm 1 mps 725 mmHg 63%
19:00 +20°C° 0 mm 1 mps 725 mmHg 69%
20:00 +18°C° 0 mm 1 mps 725 mmHg 71%
21:00 +16°C° 0 mm 1 mps 725 mmHg 74%
22:00 +14°C° 0 mm 0 mps 726 mmHg 76%
23:00 +15°C° 0 mm 1 mps 726 mmHg 77%
Mostrar más